Date,TemperatureHighF,TemperatureAvgF,TemperatureLowF,DewpointHighF,DewpointAvgF,DewpointLowF,HumidityHigh,HumidityAvg,HumidityLow,PressureMaxIn,PressureMinIn,WindSpeedMaxMPH,WindSpeedAvgMPH,GustSpeedMaxMPH,PrecipitationSumIn
2013-1-1,15.1,9.4,2.1,11.7,3.9,-3.8,93,79,62,29.69,29.47,18,2,18,0.00
2013-1-2,6.4,1.4,-4.5,-2.4,-6.1,-11.0,78,70,62,29.99,29.68,24,4,29,0.00
2013-1-3,7.2,1.0,-4.4,0.5,-4.2,-7.8,88,78,71,30.04,29.88,14,2,16,0.00
2013-1-4,21.4,6.5,-9.0,19.8,4.0,-12.3,94,89,85,29.88,29.54,3,0,4,0.00
2013-1-5,18.9,8.5,-12.5,17.6,2.6,-15.9,95,77,54,30.22,29.57,29,3,29,0.00
2013-1-6,14.2,2.8,-12.5,10.2,-0.8,-16.1,89,84,70,30.21,29.98,11,0,13,0.00
2013-1-7,7.3,-2.1,-13.2,-1.5,-7.9,-17.0,86,77,54,30.39,30.13,11,1,12,0.00
2013-1-8,33.8,19.6,-4.5,27.5,15.1,-8.0,92,82,77,30.27,30.03,16,2,22,0.01
2013-1-9,33.1,27.8,19.8,30.0,25.0,18.0,97,89,76,30.35,29.66,11,1,15,0.00
2013-1-10,34.5,29.9,19.6,31.5,24.8,15.4,97,81,68,30.48,29.66,24,4,27,0.00
2013-1-11,28.9,18.9,6.1,19.4,13.6,3.7,92,80,64,30.54,30.22,11,1,13,0.00
2013-1-12,35.8,30.9,25.5,33.4,25.3,16.9,91,80,66,30.25,30.00,12,2,16,0.01
2013-1-13,45.0,37.9,34.0,40.8,36.0,32.9,97,93,83,30.06,29.83,8,1,10,0.04
2013-1-14,50.7,36.1,22.1,45.0,30.6,12.7,96,81,54,30.19,29.67,21,3,23,0.00
2013-1-15,23.5,15.5,5.2,12.6,7.6,1.9,88,71,56,30.30,30.19,12,1,12,0.00
2013-1-16,28.2,16.5,6.1,22.1,12.5,3.4,92,84,66,30.20,29.75,11,1,14,0.00
2013-1-17,6.1,-3.0,-9.2,-10.7,-17.8,-21.1,68,49,36,30.21,29.95,17,3,22,0.00
2013-1-18,5.4,-5.6,-17.0,-8.1,-14.3,-21.1,82,67,42,30.27,30.16,13,1,15,0.00
2013-1-19,17.8,9.7,-2.6,14.2,5.6,-8.9,91,83,71,30.24,29.95,7,1,8,0.00
2013-1-20,31.8,20.3,1.9,30.6,15.9,-5.6,96,83,67,29.65,29.25,32,4,32,0.00
2013-1-21,7.3,-0.2,-8.7,-4.9,-8.4,-12.3,84,68,54,30.00,29.64,18,2,18,0.00
2013-1-22,2.1,-10.8,-24.0,-9.4,-16.8,-28.3,84,75,54,29.98,29.84,15,1,16,0.00
2013-1-23,-5.1,-11.7,-22.7,-14.8,-18.7,-27.0,83,71,57,29.94,29.82,17,2,20,0.00
2013-1-24,-0.9,-5.4,-9.6,-9.8,-12.4,-15.5,77,71,59,29.97,29.79,19,3,24,0.00
2013-1-25,8.4,1.4,-4.4,-1.8,-5.7,-10.3,79,71,61,30.11,29.97,22,3,24,0.00
2013-1-26,10.6,3.2,-3.8,0.7,-4.1,-8.7,81,71,61,30.06,29.96,14,3,18,0.00
2013-1-27,15.4,8.7,0.7,3.6,0.2,-4.0,83,68,54,30.35,30.06,20,4,20,0.00
2013-1-28,21.4,7.1,-1.8,3.7,-1.8,-6.9,86,68,39,30.36,30.11,8,1,11,0.00
2013-1-29,29.3,16.7,-0.9,17.4,9.9,-4.2,86,75,58,30.22,30.07,10,1,11,0.01
2013-1-30,43.7,34.6,24.1,42.8,32.1,15.4,98,91,67,30.08,29.27,13,2,15,0.07
2013-1-31,51.4,37.5,13.3,50.7,32.7,0.1,99,84,51,29.26,28.53,31,5,35,0.72
2013-2-1,13.3,8.4,0.5,1.2,-1.5,-5.6,75,64,55,29.98,29.19,24,4,28,0.00
2013-2-2,8.8,0.2,-6.0,-4.2,-7.1,-11.9,85,71,49,30.15,29.98,8,1,10,0.00
2013-2-3,19.2,12.8,-3.6,9.5,6.9,-7.1,85,77,65,30.15,29.78,7,1,9,0.00
2013-2-4,19.8,13.6,5.2,12.6,5.9,-6.0,87,72,51,29.78,29.44,18,4,22,0.00
2013-2-5,7.7,0.4,-4.9,-6.0,-10.2,-15.9,82,61,46,30.01,29.63,15,2,18,0.00
2013-2-6,19.6,6.1,-3.6,16.7,1.6,-9.4,90,81,73,30.23,29.85,12,2,15,0.00
2013-2-7,-0.6,-9.3,-20.6,-9.4,-17.8,-25.1,82,66,48,30.66,30.23,16,3,18,0.00
2013-2-8,7.2,-6.3,-24.5,-3.8,-13.4,-29.2,84,71,57,30.68,30.38,6,0,6,0.00
2013-2-9,12.4,8.8,4.3,7.7,1.6,-5.3,84,72,61,30.38,30.15,19,5,21,0.00
2013-2-10,26.4,13.2,-1.5,3.9,1.2,-4.9,85,61,29,30.33,30.18,19,3,19,0.00
2013-2-11,28.0,13.8,-6.0,26.8,8.9,-9.2,95,82,46,30.30,29.57,14,1,15,0.00
2013-2-12,35.2,30.9,27.1,32.7,28.6,25.9,97,91,85,29.62,29.42,12,2,15,0.16
2013-2-13,29.8,27.7,24.6,26.4,23.7,21.7,92,85,76,29.77,29.62,8,1,9,0.01
2013-2-14,33.1,21.4,8.8,23.2,17.2,6.4,93,84,63,29.97,29.75,8,1,9,0.00
2013-2-15,31.3,23.1,12.6,28.9,20.7,10.8,96,90,74,29.99,29.88,9,1,11,0.01
2013-2-16,32.9,27.0,21.6,27.0,21.2,12.4,97,79,60,29.95,29.86,10,1,12,0.01
2013-2-17,21.4,15.5,12.4,14.4,11.0,8.4,88,82,71,29.87,29.15,25,7,30,0.00
2013-2-18,23.7,17.5,11.7,13.1,9.5,5.2,82,71,61,29.86,29.17,27,7,31,0.00
2013-2-19,36.0,23.7,13.3,19.2,13.8,8.2,81,66,46,30.05,29.79,13,2,13,0.01
2013-2-20,31.6,29.0,26.6,30.9,27.2,18.3,98,93,67,29.79,29.36,17,3,20,0.01
2013-2-21,33.3,29.6,27.1,30.9,27.3,23.2,97,91,83,30.24,29.48,19,3,23,0.11
2013-2-22,30.6,23.8,7.9,24.3,19.1,5.5,91,82,71,30.43,30.23,10,2,12,0.05
2013-2-23,26.4,16.3,-0.6,23.5,13.5,-3.5,94,88,82,30.40,30.09,11,1,11,0.00
2013-2-24,29.1,24.7,21.0,25.5,22.3,19.8,95,91,85,30.09,29.91,9,2,12,0.05
2013-2-25,37.8,23.1,9.0,23.9,17.6,6.4,95,81,44,30.25,29.97,5,0,5,0.21
2013-2-26,39.9,18.5,-1.5,27.3,13.6,-4.4,94,83,53,30.39,30.25,6,-3,6,0.02
2013-2-27,40.3,22.4,2.8,25.3,15.1,0.1,92,76,40,30.34,29.98,11,1,13,0.00
2013-2-28,30.0,27.9,25.7,27.5,24.3,19.6,96,86,66,29.98,29.73,15,2,15,0.03
2013-3-1,34.9,29.5,26.1,30.6,26.3,24.3,94,88,78,29.76,29.65,13,2,15,0.17
2013-3-2,34.3,31.3,27.9,32.2,29.4,25.7,96,93,89,29.69,29.63,14,3,15,0.19
2013-3-3,38.1,33.8,30.4,34.7,31.9,28.8,97,92,86,29.64,29.46,10,2,11,0.46
2013-3-4,40.3,35.8,32.7,35.1,33.1,30.6,98,90,73,29.80,29.46,22,2,25,0.19
2013-3-5,39.6,35.8,32.5,34.0,30.8,26.8,90,82,71,30.28,29.80,23,4,27,0.01
2013-3-6,35.4,32.6,28.6,27.3,23.2,19.9,82,68,57,30.41,30.28,15,0,15,0.00
2013-3-7,31.3,28.6,27.1,23.5,21.4,19.4,79,74,69,30.42,30.32,16,4,18,0.00
2013-3-8,43.5,30.5,20.8,24.1,20.7,16.2,91,70,34,30.36,30.30,10,1,11,0.00
2013-3-9,43.0,27.5,16.9,26.8,21.8,15.1,94,81,50,30.41,30.32,5,0,6,0.00
2013-3-10,37.8,28.0,16.5,26.1,22.2,14.9,95,80,60,30.42,30.16,11,2,16,0.00
2013-3-11,48.2,39.3,33.1,33.6,30.4,25.3,82,71,53,30.17,29.99,12,3,15,0.00
2013-3-12,44.4,40.7,34.3,42.8,37.8,31.8,97,89,78,30.03,29.80,14,3,18,0.09
2013-3-13,43.2,39.8,33.3,41.5,36.9,25.3,98,90,66,29.80,29.56,10,1,14,0.35
2013-3-14,37.4,31.2,19.9,27.5,23.2,16.0,93,74,45,29.67,29.49,16,2,19,0.00
2013-3-15,25.2,18.7,13.8,16.0,10.9,8.6,85,72,54,29.70,29.56,11,1,11,0.07
2013-3-16,25.3,15.9,4.1,9.7,4.5,-1.3,91,64,33,29.86,29.63,17,2,17,0.00
2013-3-17,15.3,9.1,2.1,8.4,-0.5,-9.0,88,67,41,30.23,29.85,22,4,25,0.00
2013-3-18,24.4,12.6,3.6,2.5,-2.9,-8.9,78,51,30,30.36,30.22,16,3,21,0.00
2013-3-19,27.1,15.7,1.9,17.2,4.8,-1.8,88,65,40,30.36,29.88,15,2,17,0.00
2013-3-20,27.0,21.5,16.0,25.2,19.3,13.8,94,91,87,29.88,29.40,10,2,12,0.00
2013-3-21,32.5,24.5,12.4,24.8,19.8,10.0,93,83,64,29.69,29.46,15,2,17,0.12
2013-3-22,33.6,21.4,7.2,25.2,16.7,4.6,92,83,63,29.67,29.35,17,3,19,0.01
2013-3-23,36.7,30.0,25.3,32.9,27.0,23.4,95,89,79,29.54,29.24,18,4,21,0.27
2013-3-24,40.8,31.8,18.9,32.5,27.0,17.2,95,83,64,29.81,29.55,17,3,19,0.13
2013-3-25,39.0,32.0,24.4,28.9,26.0,23.2,97,79,56,29.80,29.70,11,2,14,0.00
2013-3-26,37.8,31.2,20.5,31.6,27.5,18.5,95,86,74,29.70,29.62,14,3,18,0.00
2013-3-27,44.2,36.6,32.7,38.3,34.5,31.6,97,93,75,29.89,29.66,11,1,12,0.30
2013-3-28,49.1,39.9,32.0,35.8,31.4,26.4,98,75,42,29.92,29.85,11,2,13,0.04
2013-3-29,46.6,36.9,25.9,34.5,26.4,16.3,98,70,31,29.96,29.88,13,2,14,0.01
2013-3-30,45.9,32.1,19.2,23.7,17.5,9.3,94,61,24,30.05,29.96,12,2,13,0.00
2013-3-31,51.3,34.9,16.2,22.3,17.3,10.9,92,55,21,30.07,29.82,15,1,18,0.00
2013-4-1,38.7,35.3,31.3,36.0,29.9,20.8,96,82,49,29.82,29.43,18,2,19,0.19
2013-4-2,31.1,22.1,15.3,24.1,12.1,4.6,84,66,43,29.62,29.45,24,4,25,0.00
2013-4-3,29.5,21.5,11.1,18.1,11.1,1.4,82,64,52,29.80,29.59,22,4,25,0.00
2013-4-4,43.9,32.8,22.3,29.1,12.9,4.6,78,46,23,30.00,29.80,18,4,25,0.00
2013-4-5,41.4,34.2,26.1,33.6,30.3,21.9,96,85,71,29.86,29.65,10,1,13,0.02
2013-4-6,29.3,23.0,16.5,21.9,8.3,1.4,83,55,32,30.28,29.75,24,5,25,0.00
2013-4-7,38.7,26.6,9.7,31.1,15.8,5.7,86,65,39,30.30,29.81,17,3,21,0.01
2013-4-8,39.7,35.2,27.7,33.4,29.7,25.3,91,81,64,30.15,29.78,13,2,13,0.00
2013-4-9,37.0,32.2,26.2,35.2,30.5,24.4,97,93,90,30.16,29.91,8,1,10,0.05
2013-4-10,43.9,37.0,32.5,35.2,30.4,17.4,98,78,49,29.94,29.86,14,2,16,0.03
2013-4-11,35.1,30.0,24.4,19.2,12.9,7.7,71,49,38,30.21,29.91,20,4,22,0.00
2013-4-12,40.8,30.5,18.9,31.1,22.0,15.4,97,73,43,30.27,30.02,13,1,16,0.00
2013-4-13,37.8,33.8,30.6,34.3,31.6,29.5,97,92,83,30.03,29.83,8,1,8,0.27
2013-4-14,40.3,35.4,32.2,35.4,33.2,31.1,97,92,79,30.17,29.89,8,1,8,0.13
2013-4-15,50.2,39.2,31.5,36.1,31.6,29.7,98,77,47,30.36,30.17,7,1,9,0.01
2013-4-16,46.0,41.3,35.1,43.7,37.2,30.4,97,85,71,30.31,29.72,17,3,19,0.09
2013-4-17,45.9,40.8,30.9,39.9,26.5,16.9,91,59,33,30.37,29.78,26,5,30,0.08
2013-4-18,45.9,35.7,23.5,32.9,23.4,16.0,89,64,32,30.47,29.91,15,2,16,0.06
2013-4-19,70.5,53.7,40.3,54.5,43.0,28.6,88,67,51,29.91,29.42,15,3,20,0.00
2013-4-20,58.5,45.3,33.6,55.4,38.6,27.3,95,79,48,30.01,29.41,20,3,24,0.20
2013-4-21,40.5,31.9,24.6,32.0,14.2,3.4,93,50,23,30.73,30.02,15,4,19,0.01
2013-4-22,52.7,35.5,18.3,23.7,16.4,9.7,92,53,18,30.83,30.61,14,2,18,0.00
2013-4-23,54.5,41.7,25.3,34.2,20.3,10.0,91,49,18,30.62,30.28,15,3,23,0.00
2013-4-24,54.7,46.7,38.7,49.6,42.7,33.8,98,86,65,30.27,29.67,14,2,14,0.03
2013-4-25,52.9,47.0,30.9,49.1,36.6,25.5,97,70,39,30.32,29.60,19,4,23,0.04
2013-4-26,57.2,40.6,24.6,30.2,24.3,13.8,96,59,18,30.48,30.32,9,1,10,0.00
2013-4-27,61.9,43.3,25.2,32.0,26.1,20.5,95,58,21,30.45,30.26,10,1,11,0.00
2013-4-28,68.2,47.4,27.3,35.1,29.8,25.3,94,58,23,30.34,30.17,10,1,12,0.00
2013-4-29,70.2,51.7,29.8,37.8,32.5,28.0,94,55,22,30.27,30.13,13,2,15,0.00
2013-4-30,73.0,54.3,31.6,40.5,34.3,29.3,92,54,21,30.33,30.22,11,1,14,0.00
2013-5-1,76.8,57.3,37.9,45.5,39.7,33.1,92,59,22,30.43,30.33,9,1,9,0.00
2013-5-2,68.2,55.6,42.3,42.6,35.6,20.3,79,51,20,30.57,30.40,16,3,18,0.00
2013-5-3,69.4,51.1,31.6,39.9,35.3,29.3,93,59,28,30.61,30.38,10,1,11,0.00
2013-5-4,75.0,54.4,32.2,38.8,34.7,30.2,94,54,22,30.41,30.18,8,1,11,0.00
2013-5-5,82.8,61.7,36.0,45.0,37.7,32.7,91,49,17,30.20,30.02,11,1,12,0.00
2013-5-6,82.9,66.7,47.5,45.0,39.7,33.8,76,42,18,30.11,29.92,15,2,18,0.00
2013-5-7,82.8,65.7,46.8,43.7,39.0,30.9,76,44,17,30.09,29.90,17,2,19,0.00
2013-5-8,82.8,63.7,40.3,49.3,42.8,35.1,92,53,19,30.19,30.01,18,2,22,0.00
2013-5-9,65.7,59.6,51.1,59.5,54.7,48.2,95,84,68,30.06,29.83,14,2,15,0.02
2013-5-10,57.7,53.3,45.7,56.3,48.9,42.6,97,86,64,30.01,29.83,14,2,16,0.02
2013-5-11,54.1,50.6,45.7,53.6,49.3,43.0,98,95,90,30.00,29.58,18,3,18,0.43
2013-5-12,61.9,53.0,44.2,53.6,49.1,41.9,99,87,58,29.65,29.49,10,1,11,0.22
2013-5-13,50.9,43.2,35.1,42.3,32.3,27.3,93,67,43,29.96,29.58,20,3,23,0.02
2013-5-14,50.4,40.6,28.9,36.3,31.5,27.7,97,72,47,30.01,29.94,10,1,12,0.00
2013-5-15,63.3,47.8,29.5,35.2,30.1,23.0,94,57,22,29.95,29.62,16,2,19,0.00
2013-5-16,53.2,47.1,41.4,50.5,44.3,35.4,98,90,56,29.77,29.50,12,2,16,0.20
2013-5-17,52.9,45.6,41.2,40.1,37.6,34.5,88,74,51,30.22,29.77,16,4,17,0.01
2013-5-18,58.5,45.4,30.0,36.3,32.5,28.0,97,65,34,30.36,30.22,10,1,10,0.00
2013-5-19,63.7,47.5,29.1,39.2,32.0,21.6,97,62,22,30.41,30.14,10,1,11,0.00
2013-5-20,55.9,50.6,46.0,54.5,48.0,38.5,98,91,60,30.14,29.92,14,2,15,0.19
2013-5-21,64.8,51.9,46.9,51.1,48.1,45.1,100,89,51,30.04,29.96,8,0,9,0.00
2013-5-22,53.2,50.3,45.9,50.5,48.6,44.4,97,94,86,29.99,29.86,16,3,21,0.03
2013-5-23,61.0,54.5,48.2,60.3,53.3,47.1,99,96,89,29.86,29.69,16,3,17,0.40
2013-5-24,56.7,49.1,45.1,55.8,47.6,43.7,98,95,90,29.99,29.70,19,3,19,0.60
2013-5-25,45.3,42.8,39.7,44.2,40.9,38.3,98,93,80,30.08,29.89,13,2,15,0.79
2013-5-26,48.9,43.8,40.6,47.5,42.2,39.2,98,94,87,29.91,29.75,15,3,19,0.57
2013-5-27,52.9,44.4,36.1,40.5,37.1,34.3,94,77,53,30.13,29.83,18,4,21,0.02
2013-5-28,70.3,50.1,31.5,42.8,36.2,30.4,99,66,27,30.24,30.13,9,1,10,0.00
2013-5-29,72.5,55.7,36.5,55.0,43.3,34.5,97,70,26,30.21,29.92,19,3,21,0.12
2013-5-30,74.8,62.2,53.2,61.7,56.7,52.3,99,84,56,29.93,29.87,9,1,13,0.15
2013-5-31,86.9,68.6,55.9,73.9,62.9,54.5,98,84,47,29.93,29.72,23,1,25,0.83
2013-6-1,75.7,65.6,52.7,68.7,62.0,51.1,99,89,70,29.85,29.73,13,1,14,0.30
2013-6-2,74.7,63.3,52.5,68.9,61.6,51.1,99,95,79,29.74,29.56,11,1,12,1.27
2013-6-3,75.6,66.6,54.3,64.6,56.3,45.7,99,72,43,29.68,29.60,16,2,19,0.05
2013-6-4,59.7,53.1,45.5,46.4,41.2,31.5,92,66,43,29.95,29.65,21,3,24,0.03
2013-6-5,64.2,53.0,42.1,38.1,34.0,27.0,80,52,25,30.09,29.94,20,3,20,0.00
2013-6-6,69.8,53.2,34.2,44.1,36.0,27.9,96,59,22,30.19,30.09,12,1,13,0.00
2013-6-7,64.2,56.0,46.2,54.3,49.1,42.8,93,79,57,30.15,30.03,8,1,10,0.00
2013-6-8,57.2,53.2,48.7,53.6,49.9,45.3,95,88,78,30.04,29.85,13,1,15,0.44
2013-6-9,57.4,50.9,45.7,51.4,47.7,44.4,97,89,79,30.14,29.99,9,0,9,0.05
2013-6-10,77.7,59.1,41.7,55.6,49.2,41.0,99,74,36,30.17,29.97,9,1,10,0.00
2013-6-11,66.0,57.9,48.7,58.3,54.0,47.8,98,88,67,29.98,29.73,6,0,7,0.08
2013-6-12,70.2,59.9,51.1,58.6,50.4,39.0,98,75,33,29.78,29.69,12,1,15,0.21
2013-6-13,73.2,58.5,40.8,49.1,44.1,39.2,96,63,32,29.83,29.68,12,1,16,0.00
2013-6-14,77.2,61.1,45.0,59.0,50.0,43.7,97,71,36,29.71,29.58,14,2,16,0.03
2013-6-15,69.3,57.9,44.2,49.3,43.7,36.3,96,63,34,29.75,29.65,17,2,24,0.00
2013-6-16,64.8,52.3,37.6,51.3,40.3,27.1,97,68,27,29.86,29.75,8,1,12,0.20
2013-6-17,62.8,55.3,49.6,58.3,53.1,48.7,98,93,83,29.79,29.71,7,0,8,0.14
2013-6-18,65.8,55.2,46.4,51.6,48.6,42.8,97,80,46,29.93,29.79,10,1,13,0.03
2013-6-19,70.3,55.2,40.5,49.5,44.4,39.6,99,71,35,30.09,29.92,11,2,14,0.01
2013-6-20,74.8,59.4,39.6,52.9,43.4,38.3,97,62,30,30.17,30.08,13,1,14,0.00
2013-6-21,73.4,62.0,47.3,54.1,46.0,36.5,89,60,31,30.17,30.08,16,2,17,0.00
2013-6-22,77.7,58.7,39.7,60.6,50.2,38.1,95,76,51,30.17,29.99,18,1,18,0.00
2013-6-23,79.0,67.2,52.9,64.8,59.3,51.8,98,78,51,30.09,29.85,14,2,15,0.00
2013-6-24,81.3,71.0,57.7,67.1,62.9,56.8,98,78,54,29.86,29.67,9,1,13,0.00
2013-6-25,85.8,70.4,59.4,70.0,64.1,56.5,98,82,49,29.76,29.56,21,2,26,0.37
2013-6-26,61.2,56.7,52.3,56.7,53.0,50.2,96,88,78,29.89,29.71,11,2,13,0.35
2013-6-27,55.2,51.3,47.8,53.4,49.6,46.8,97,94,88,29.98,29.83,12,1,14,0.85
2013-6-28,54.0,51.8,49.3,53.1,50.4,47.5,98,95,92,29.96,29.66,16,1,16,0.63
2013-6-29,64.6,58.2,52.9,63.3,57.6,52.3,99,98,95,29.66,29.55,6,0,7,0.62
2013-6-30,76.1,65.7,57.4,64.2,60.2,56.3,100,84,56,29.89,29.62,14,2,16,0.05
2013-7-1,74.8,63.7,53.1,62.1,52.0,38.3,99,71,29,30.18,29.89,12,1,13,0.00
2013-7-2,72.7,61.8,51.1,55.2,50.4,43.2,95,69,38,30.27,30.15,10,1,14,0.00
2013-7-3,83.1,69.1,55.9,68.4,59.7,53.2,94,74,46,30.15,29.97,11,1,11,0.00
2013-7-4,88.9,75.9,63.1,68.9,64.1,61.0,97,70,41,30.06,29.91,12,2,16,0.00
2013-7-5,88.0,78.5,69.1,69.8,65.8,57.4,90,68,36,29.94,29.85,17,2,17,0.00
2013-7-6,87.8,76.0,64.8,69.1,65.2,61.2,96,72,44,29.90,29.75,10,1,14,0.00
2013-7-7,80.1,72.8,61.9,67.6,55.4,32.5,87,59,20,29.93,29.77,14,2,16,0.00
2013-7-8,75.7,64.3,52.0,51.4,47.9,41.2,88,58,30,30.08,29.93,9,1,13,0.00
2013-7-9,76.5,62.2,46.6,63.3,53.9,44.6,95,76,52,30.13,29.99,5,0,8,0.00
2013-7-10,75.6,68.3,60.1,66.2,63.4,58.3,96,85,72,29.99,29.66,18,2,18,0.00
2013-7-11,76.6,69.3,56.8,66.0,60.2,50.2,97,75,49,30.00,29.59,14,3,16,0.00
2013-7-12,81.1,62.8,46.2,56.1,49.8,43.7,97,68,31,30.20,30.00,7,1,8,0.00
2013-7-13,88.2,67.3,46.8,58.3,51.9,45.7,97,65,25,30.27,30.15,8,1,10,0.00
2013-7-14,91.8,72.0,52.2,64.4,57.9,50.5,96,67,29,30.22,30.09,9,1,13,0.00
2013-7-15,91.8,76.3,59.5,67.3,62.0,57.6,94,66,32,30.11,29.99,15,2,18,0.00
2013-7-16,86.4,75.2,58.6,65.7,59.4,50.4,91,62,32,30.15,30.07,9,1,13,0.00
2013-7-17,87.3,67.5,53.1,74.8,63.0,51.4,97,86,62,30.14,29.83,12,1,12,0.22
2013-7-18,80.1,69.7,58.8,64.9,56.8,49.1,98,67,41,29.97,29.88,13,1,13,0.03
2013-7-19,80.4,68.1,57.7,73.4,64.8,54.5,98,90,77,29.92,29.43,14,1,16,0.27
2013-7-20,78.1,71.8,57.0,69.3,64.1,51.1,87,77,54,29.73,29.44,14,2,16,0.02
2013-7-21,68.2,58.7,47.7,51.8,45.0,40.1,91,63,39,29.99,29.73,14,2,16,0.00
2013-7-22,78.1,60.4,42.6,56.5,48.1,41.4,98,69,32,30.03,29.86,8,1,11,0.00
2013-7-23,68.7,61.8,54.1,64.4,58.9,51.8,98,91,71,29.87,29.53,9,1,11,0.48
2013-7-24,76.5,63.7,52.2,68.5,58.2,47.5,99,84,49,29.95,29.49,15,2,17,0.24
2013-7-25,74.7,59.3,45.1,56.5,49.6,43.9,97,73,43,30.15,29.95,7,1,9,0.00
2013-7-26,65.5,58.6,51.8,59.9,55.6,50.2,96,90,73,30.15,29.96,10,1,10,0.23
2013-7-27,73.4,63.8,57.4,61.9,58.9,55.0,96,85,66,30.03,29.90,21,3,21,0.10
2013-7-28,77.2,65.9,54.9,64.0,59.4,54.3,99,81,58,30.09,30.01,14,1,15,0.00
2013-7-29,68.2,62.9,58.8,64.2,60.8,57.7,98,93,85,30.03,29.98,7,1,9,0.01
2013-7-30,74.5,64.1,55.4,64.9,60.1,54.3,99,88,62,30.02,29.92,10,1,13,0.14
2013-7-31,78.3,64.5,51.1,60.6,55.8,50.5,99,77,45,29.98,29.92,15,1,19,0.00
2013-8-1,82.0,66.6,51.4,64.8,57.3,50.5,99,75,44,29.99,29.83,11,1,14,0.00
2013-8-2,70.0,62.3,57.7,65.3,60.1,56.8,98,93,76,29.83,29.67,8,1,13,0.70
2013-8-3,65.8,59.8,52.9,61.5,57.5,52.5,100,92,76,29.72,29.64,11,0,11,0.08
2013-8-4,73.4,60.5,52.7,61.0,56.5,52.2,99,88,56,29.74,29.65,11,1,16,0.08
2013-8-5,65.1,57.8,49.5,56.1,53.4,47.1,98,86,66,29.88,29.72,13,2,20,0.21
2013-8-6,76.3,61.1,43.5,58.3,51.4,42.6,98,74,44,30.09,29.88,15,1,15,0.01
2013-8-7,79.0,63.1,49.5,66.2,56.1,48.6,99,81,41,30.16,30.04,13,1,15,0.04
2013-8-8,64.9,59.8,53.4,62.2,57.9,51.3,98,93,90,30.05,29.96,8,1,13,0.27
2013-8-9,67.6,64.9,62.8,66.6,63.9,61.7,99,97,95,29.98,29.66,8,0,9,0.07
2013-8-10,67.8,63.8,51.6,64.9,55.6,48.7,99,76,56,29.83,29.60,21,3,25,0.01
2013-8-11,75.9,61.8,48.7,59.4,51.7,46.8,95,73,40,29.88,29.81,14,1,19,0.00
2013-8-12,74.5,62.4,52.3,63.1,57.2,51.4,98,84,55,29.88,29.79,16,1,16,0.05
2013-8-13,65.5,58.5,51.3,62.1,56.9,50.9,100,95,78,29.87,29.68,9,0,10,0.07
2013-8-14,68.7,60.1,53.2,63.0,56.2,49.1,99,87,68,29.69,29.53,16,2,19,0.06
2013-8-15,72.3,60.1,49.8,57.4,52.2,47.3,95,77,49,29.96,29.68,14,2,15,0.01
2013-8-16,72.3,59.5,49.1,59.4,54.1,48.2,98,84,46,30.15,29.96,14,1,16,0.01
2013-8-17,73.8,59.5,47.8,55.9,51.0,46.9,98,77,41,30.23,30.14,12,1,12,0.01
2013-8-18,79.9,64.0,45.1,59.2,53.1,44.4,98,71,41,30.20,29.89,15,2,16,0.00
2013-8-19,77.4,66.7,58.5,62.8,58.6,55.0,94,76,55,29.89,29.78,18,1,20,0.00
2013-8-20,78.6,65.7,57.0,68.7,62.8,55.6,99,91,68,30.00,29.87,7,0,8,0.22
2013-8-21,86.0,72.0,58.5,70.0,64.2,58.1,100,79,49,30.00,29.83,15,2,18,0.01
2013-8-22,78.6,69.3,61.0,68.0,64.3,59.5,98,85,69,29.83,29.72,12,1,15,0.37
2013-8-23,66.4,59.3,46.4,60.8,51.2,43.2,98,77,45,30.12,29.72,16,3,18,0.52
2013-8-24,76.3,57.2,41.7,54.0,47.0,40.8,98,74,33,30.26,30.12,9,1,10,0.00
2013-8-25,80.1,61.0,43.0,60.3,51.6,42.1,98,75,40,30.30,30.04,6,1,7,0.00
2013-8-26,71.8,62.7,56.8,65.7,59.9,54.9,98,91,77,30.04,29.76,8,0,11,0.05
2013-8-27,76.5,65.7,56.7,64.4,59.6,56.1,100,83,57,29.89,29.80,9,1,9,0.01
2013-8-28,73.0,63.7,56.1,65.8,60.1,55.2,99,89,70,30.09,29.86,8,0,10,0.37
2013-8-29,67.5,57.8,47.7,57.2,50.7,46.0,94,78,58,30.22,30.04,9,1,10,0.00
2013-8-30,72.7,57.4,42.3,62.8,53.1,41.5,99,86,66,30.04,29.73,9,1,9,0.01
2013-8-31,76.3,66.2,58.3,64.2,60.8,57.7,100,85,57,29.82,29.73,7,0,9,0.02
2013-9-1,74.8,66.4,58.1,63.1,59.3,55.0,96,79,55,30.00,29.76,12,1,13,0.01
2013-9-2,62.2,57.8,53.2,59.2,54.7,52.3,97,90,80,30.06,29.83,12,2,14,0.64
2013-9-3,73.9,62.0,53.4,65.5,58.8,52.3,99,90,71,29.83,29.62,8,0,9,0.12
2013-9-4,72.7,59.6,43.3,58.8,52.7,41.7,98,80,55,29.84,29.60,20,2,20,0.00
2013-9-5,58.3,48.2,38.7,43.7,39.2,33.1,96,74,41,30.04,29.84,14,1,15,0.00
2013-9-6,66.4,51.4,34.5,45.0,39.2,33.4,97,67,35,30.06,29.85,15,2,16,0.00
2013-9-7,66.4,59.4,52.2,57.9,52.6,44.8,97,78,67,29.85,29.65,16,2,20,0.07
2013-9-8,58.6,50.5,39.2,58.1,44.9,37.6,98,82,53,29.91,29.63,22,3,22,0.17
2013-9-9,68.2,52.6,36.1,46.2,40.6,35.4,98,68,35,30.03,29.87,18,2,18,0.01
2013-9-10,70.9,59.3,50.7,56.7,51.5,45.7,95,76,51,30.03,29.94,9,1,11,0.02
2013-9-11,76.1,64.7,57.6,72.7,63.4,56.3,99,96,81,29.98,29.78,8,0,9,0.34
2013-9-12,68.4,63.9,59.2,68.0,63.5,58.8,100,99,96,29.85,29.55,5,0,6,0.32
2013-9-13,63.0,61.1,57.6,62.8,57.9,53.2,100,89,79,29.75,29.53,14,2,15,0.01
2013-9-14,57.6,49.7,44.8,53.8,47.9,44.1,98,93,86,29.92,29.72,11,2,13,0.30
2013-9-15,63.9,54.4,44.1,54.1,49.1,43.5,100,84,57,29.96,29.85,13,1,14,0.01
2013-9-16,55.2,46.1,38.1,53.1,39.5,32.0,96,79,57,30.18,29.86,19,3,19,0.24
2013-9-17,63.7,48.1,31.6,44.8,38.7,30.6,98,73,40,30.29,30.14,12,1,14,0.00
2013-9-18,71.2,53.2,38.5,48.0,42.8,37.4,97,72,31,30.14,29.96,12,1,15,0.00
2013-9-19,74.7,57.0,41.7,56.5,49.0,41.0,98,78,38,30.02,29.92,12,1,13,0.00
2013-9-20,64.6,58.2,52.3,58.6,54.8,50.9,96,89,79,30.07,29.96,12,1,16,0.00
2013-9-21,73.0,62.6,55.2,56.8,52.9,48.2,92,73,42,29.97,29.65,20,4,24,0.00
2013-9-22,67.6,60.0,48.7,62.2,56.6,43.9,97,89,75,29.68,29.48,17,2,21,0.69
2013-9-23,48.6,45.6,43.3,44.2,42.9,41.5,95,90,84,29.78,29.66,14,4,21,0.55
2013-9-24,51.4,46.8,42.4,46.2,43.6,40.6,94,89,81,29.84,29.72,14,4,20,0.07
2013-9-25,54.3,49.0,45.0,47.7,45.0,42.4,93,86,76,29.96,29.83,16,3,16,0.02
2013-9-26,57.0,51.7,45.0,50.9,48.0,43.3,96,87,78,30.14,29.96,11,2,12,0.00
2013-9-27,68.5,54.6,43.7,54.3,48.3,42.4,98,82,51,30.25,30.13,12,1,14,0.00
2013-9-28,75.6,54.7,41.2,56.5,48.3,40.3,99,83,44,30.31,30.18,10,1,10,0.00
2013-9-29,76.5,55.1,39.9,55.0,47.2,39.4,99,79,36,30.18,30.03,8,1,9,0.01
2013-9-30,75.2,53.6,41.5,54.7,46.9,40.5,99,82,43,30.08,29.95,9,0,13,0.00
2013-10-1,75.7,53.8,41.5,55.9,45.9,40.6,99,79,32,29.97,29.76,8,0,8,0.01
2013-10-2,72.9,58.3,43.9,57.6,47.4,42.6,98,71,37,29.77,29.58,16,2,16,0.00
2013-10-3,65.7,54.9,41.5,45.7,42.4,39.4,92,65,41,29.94,29.76,16,2,21,0.00
2013-10-4,58.3,46.0,35.8,40.6,36.4,31.1,97,73,44,30.09,29.93,16,2,16,0.00
2013-10-5,56.7,42.1,31.5,40.1,33.6,29.7,98,75,40,30.19,30.04,14,1,16,0.00
2013-10-6,57.7,42.5,28.2,39.7,33.6,26.8,97,74,41,30.27,30.11,9,1,9,0.01
2013-10-7,65.7,52.8,44.1,63.0,49.8,39.0,96,90,71,30.12,29.60,19,5,25,0.24
2013-10-8,55.8,49.6,35.4,53.2,40.0,33.4,93,71,45,30.30,29.67,18,2,24,0.28
2013-10-9,65.7,46.1,30.4,43.7,37.5,29.3,97,76,40,30.40,30.22,12,1,13,0.00
2013-10-10,72.7,52.8,37.9,51.1,43.7,36.1,94,75,43,30.23,30.11,11,1,11,0.00
2013-10-11,70.9,54.1,39.4,54.9,47.4,38.7,98,80,55,30.26,30.13,8,1,9,0.00
2013-10-12,58.3,46.8,36.5,46.9,42.7,35.4,97,86,62,30.39,30.26,7,0,7,0.00
2013-10-13,60.8,44.8,36.1,48.2,41.3,35.1,99,89,61,30.43,30.27,7,0,8,0.01
2013-10-14,51.6,44.2,34.7,51.3,43.6,34.0,99,98,95,30.28,30.15,5,0,5,0.09
2013-10-15,59.0,47.8,36.1,50.9,42.2,34.7,99,83,47,30.28,30.18,5,0,6,0.03
2013-10-16,56.7,47.8,34.2,51.8,44.9,33.1,97,90,76,30.18,29.85,15,2,15,0.00
2013-10-17,62.2,54.9,49.6,55.2,51.1,47.1,98,88,65,29.85,29.66,15,1,16,0.09
2013-10-18,55.0,48.6,43.7,52.3,47.3,42.8,99,95,87,29.69,29.56,6,0,8,0.20
2013-10-19,56.8,47.5,40.8,45.5,40.6,38.3,96,78,52,29.79,29.63,16,2,21,0.00
2013-10-20,50.7,45.9,41.4,47.1,41.2,35.1,98,84,58,29.73,29.56,19,2,19,0.25
2013-10-21,55.0,43.9,37.4,40.1,36.6,33.8,94,76,52,29.94,29.73,11,1,14,0.01
2013-10-22,52.0,44.8,36.9,48.9,42.9,35.2,97,93,87,29.91,29.57,12,2,16,0.22
2013-10-23,45.3,36.0,29.1,36.0,31.7,27.7,98,85,61,29.66,29.52,11,1,15,0.01
2013-10-24,40.8,34.7,27.9,32.9,28.6,24.1,97,79,55,29.56,29.45,20,2,20,0.00
2013-10-25,43.7,38.0,30.6,36.0,32.9,28.9,94,82,64,29.91,29.56,16,1,18,0.02
2013-10-26,42.4,34.5,26.1,35.1,29.3,24.8,97,83,51,29.95,29.75,13,2,16,0.02
2013-10-27,44.2,39.2,36.0,39.0,36.4,34.0,95,90,79,29.81,29.67,13,1,13,0.03
2013-10-28,36.3,32.5,25.5,34.5,30.2,23.7,96,91,79,30.24,29.81,13,1,13,0.17
2013-10-29,34.7,27.6,21.9,27.0,23.0,19.8,95,84,61,30.34,30.23,12,1,12,0.02
2013-10-30,39.7,28.4,20.1,27.1,23.1,18.5,94,82,55,30.27,30.03,13,1,13,0.01
2013-10-31,44.1,33.6,22.3,43.5,30.4,20.8,98,89,73,30.12,29.58,12,2,12,0.16
2013-11-1,63.9,55.0,44.1,59.5,50.9,39.9,99,87,60,29.58,29.02,29,4,30,0.27
2013-11-2,49.3,39.5,30.6,40.1,32.4,19.0,95,76,57,29.84,29.31,16,2,20,0.00
2013-11-3,35.8,29.2,22.1,20.1,18.0,13.8,82,63,44,30.35,29.83,17,2,21,0.00
2013-11-4,36.7,26.6,17.2,20.3,18.3,15.1,92,72,48,30.66,30.35,13,2,14,0.00
2013-11-5,39.9,28.5,16.7,26.1,20.6,14.7,93,74,46,30.67,30.35,12,1,14,0.00
2013-11-6,53.6,41.8,33.3,41.7,33.5,26.2,86,73,54,30.35,29.73,14,2,14,0.00
2013-11-7,55.0,44.5,29.7,50.4,40.2,25.0,97,85,65,29.74,29.48,13,2,14,0.14
2013-11-8,38.7,33.9,28.9,28.9,26.6,22.5,88,75,53,29.71,29.60,18,2,21,0.00
2013-11-9,33.8,31.6,29.1,28.0,23.0,21.0,86,70,61,30.01,29.70,19,3,19,0.00
2013-11-10,31.3,29.7,25.5,29.8,26.7,21.9,96,89,78,30.00,29.66,11,1,13,0.01
2013-11-11,33.8,31.8,30.4,29.5,28.6,27.0,95,88,78,29.87,29.67,9,1,15,0.04
2013-11-12,32.4,25.7,20.3,31.1,20.9,15.4,96,82,65,29.87,29.65,20,3,22,0.01
2013-11-13,30.4,23.9,19.2,18.5,15.1,12.9,84,69,50,30.02,29.84,18,3,24,0.00
2013-11-14,36.1,32.1,22.8,30.4,26.4,17.2,85,79,76,29.91,29.75,14,1,16,0.01
2013-11-15,46.6,39.1,34.2,33.3,31.9,30.4,88,76,57,30.11,29.91,11,1,12,0.00
2013-11-16,50.0,36.7,25.5,35.4,31.0,24.3,95,81,51,30.29,30.11,5,0,5,0.00
2013-11-17,49.6,35.5,22.1,40.5,31.0,20.8,97,85,54,30.30,29.92,16,2,16,0.18
2013-11-18,53.4,45.6,40.6,50.2,41.5,32.2,98,86,63,29.93,29.29,19,4,24,0.77
2013-11-19,41.7,32.8,26.8,33.3,22.1,10.9,78,64,51,30.02,29.38,23,5,32,0.00
2013-11-20,29.5,24.8,21.4,13.8,8.6,3.2,72,51,34,30.55,30.02,24,5,32,0.00
2013-11-21,44.1,26.1,16.2,21.2,17.2,12.4,88,71,35,30.54,30.26,9,0,9,0.00
2013-11-22,38.5,29.9,23.0,29.7,22.6,17.1,95,76,42,30.27,29.64,4,0,5,0.00
2013-11-23,32.5,27.7,18.5,31.8,21.8,10.8,97,79,63,29.64,29.42,22,3,23,0.01
2013-11-24,18.3,17.1,15.6,13.5,10.8,7.9,85,76,68,29.65,29.38,24,6,33,0.00
2013-11-25,21.4,17.2,14.2,13.5,7.9,4.6,85,67,50,30.12,29.65,20,3,23,0.00
2013-11-26,33.6,25.6,17.2,25.2,20.8,13.1,89,82,69,30.21,30.07,11,2,16,0.03
2013-11-27,44.4,34.7,26.1,43.9,33.5,21.9,99,95,80,30.15,29.10,12,2,12,0.62
2013-11-28,34.5,23.4,13.5,33.3,19.3,9.1,96,84,75,30.16,29.14,21,3,26,0.19
2013-11-29,19.9,13.1,8.2,11.8,7.9,5.0,91,80,60,30.59,30.16,14,2,16,0.00
2013-11-30,19.8,13.2,4.3,14.2,8.1,1.6,91,81,58,30.69,30.32,7,1,9,0.00
2013-12-1,29.1,23.6,18.0,22.8,19.5,14.0,91,84,73,30.32,30.16,5,0,6,0.00
2013-12-2,29.8,25.8,19.8,29.1,24.1,18.1,97,93,90,30.17,29.94,5,0,6,0.00
2013-12-3,34.0,32.1,29.8,33.1,31.3,29.1,98,97,93,29.94,29.82,10,0,12,0.07
2013-12-4,33.4,31.5,28.4,30.7,28.1,24.8,93,87,82,30.15,29.80,17,5,21,0.04
2013-12-5,37.8,30.0,26.2,37.0,27.9,23.5,97,92,86,30.20,29.75,13,2,18,0.10
2013-12-6,41.4,35.9,28.4,40.3,29.0,14.4,98,77,56,29.95,29.72,17,2,21,0.15
2013-12-7,28.4,21.3,12.7,14.7,11.3,9.1,86,66,51,30.19,29.95,14,2,18,0.00
2013-12-8,20.1,12.4,1.9,10.0,6.1,-1.1,90,77,53,30.51,30.19,13,1,15,0.00
2013-12-9,16.9,8.7,0.0,14.7,5.9,-3.3,91,88,81,30.50,29.71,12,1,13,0.00
2013-12-10,27.5,18.0,3.6,23.7,14.0,1.0,94,85,61,29.71,29.61,16,2,18,0.02
2013-12-11,19.8,7.5,-5.4,10.2,2.4,-8.9,91,80,60,29.99,29.70,18,2,21,0.00
2013-12-12,1.9,-4.2,-13.2,-5.3,-9.5,-16.8,86,78,62,30.12,29.83,13,-3,13,0.00
2013-12-13,6.1,-0.9,-11.2,0.5,-6.5,-16.2,86,77,64,30.25,29.72,17,2,17,0.00
2013-12-14,5.0,-7.4,-15.5,-6.2,-12.9,-19.7,85,77,57,30.53,30.25,10,1,10,0.00
2013-12-15,12.7,5.1,-4.5,10.0,1.5,-8.1,89,85,76,30.45,29.52,11,1,12,0.00
2013-12-16,12.2,7.0,-3.3,8.4,3.4,-7.1,90,85,80,30.02,29.51,12,2,14,0.00
2013-12-17,9.9,-2.0,-11.0,3.4,-5.9,-14.4,87,83,75,30.22,30.02,9,-3,11,0.01
2013-12-18,16.7,5.3,0.1,11.7,2.1,-2.6,90,86,79,30.11,29.75,4,0,5,0.00
2013-12-19,17.1,11.5,2.7,14.4,8.8,-0.4,92,89,82,30.03,29.75,6,0,6,0.00
2013-12-20,12.4,8.7,6.3,8.2,5.5,2.3,89,86,81,30.15,30.00,6,0,7,0.00
2013-12-21,16.5,13.7,10.2,14.2,11.0,7.3,91,89,86,30.08,29.83,9,1,10,0.00
2013-12-22,15.1,13.7,12.0,12.7,10.7,9.3,91,88,83,30.16,30.05,15,2,15,0.00
2013-12-23,19.8,16.4,12.6,18.1,14.4,9.9,93,92,88,30.13,29.98,8,0,8,0.00
2013-12-24,19.8,15.4,11.5,18.1,12.2,7.7,93,87,81,30.08,29.99,12,2,12,0.00
2013-12-25,12.4,3.4,-10.5,7.9,-1.0,-13.9,88,82,67,30.45,30.06,10,2,11,0.00
2013-12-26,10.9,3.3,-9.0,8.6,0.4,-12.5,90,87,84,30.43,30.05,7,1,8,0.00
2013-12-27,19.8,5.2,-8.7,16.5,2.4,-11.9,91,88,83,30.06,29.95,4,0,5,0.00
2013-12-28,28.9,17.0,-2.0,25.9,14.1,-4.7,92,89,76,29.99,29.72,16,1,18,0.00
2013-12-29,17.1,7.0,4.1,10.8,2.2,-3.5,89,81,69,30.14,29.65,14,2,14,0.00
2013-12-30,16.3,8.7,-5.4,13.1,4.9,-11.0,91,84,74,30.04,29.51,13,1,17,0.00
2013-12-31,1.0,-4.2,-8.3,-5.8,-9.3,-12.1,85,78,68,30.08,29.96,7,1,11,0.00
2014-1-1,4.1,-9.4,-19.5,-2.2,-14.2,-24.2,85,79,67,30.38,29.96,12,1,12,0.00
2014-1-2,-13.2,-19.5,-30.8,-20.9,-25.7,-35.7,79,72,60,30.47,30.19,5,-6,6,0.00